PROFILE

 METAR AND TAF INFORMATION
ADDS - METARS form results

(1457 UTC 25 September 2022)
http://aviationweather.gov/metar/data/
 
LIRN 251450Z VRB02KT 5000 -RA FEW020 SCT040 OVC080 17/16 Q1015 RETS NOSIG
LIRN 251420Z 28003KT 190V320 5000 -TSRA FEW020CB SCT040 OVC070 16/16 Q1015 NOSIG
TAF LIRN 251100Z 2512/2612 VRB06KT 9999 BKN040 OVC080 TEMPO 2512/2612 4000 TSRA TEMPO 2606/2611 18015G25KT 

 AIRPORT MAP

 RUNWAY INFORMATION
Runway 06 Runway length 8622 ft Runway width 148 ft
Runway elevation 284 ft Runway displaced threshold 1309 ft Runway heading 58
Runway 24 Runway length 8622 ft Runway width 148 ft
Runway elevation 223 ft Runway displaced threshold 624 ft Runway heading 238

 AIRPORT FREQUENCIES
Type APP Name NAPOLI RAD Frequency 124.35 MHZ
Type ATIS Name ATIS Frequency 135.975 MHZ
Type DIR Name NAPOLI DIR Frequency 120.95 MHZ
Type GCCD Name NAPOLI GND Frequency 121.9 MHZ
Type OPS Name USN BASE O Frequency 118.275 MHZ
Type PMSV Name PMSV METRO Frequency 34.1 MHZ
Type POST Name ATOC Frequency 118.275 MHZ
Type TWR Name NAPOLI TWR Frequency 118.5 MHZ

 AIRPORT NEAR NAVIGATION AIDS
Type VOR-DME Name Pomigliano Frequency 117850 KHZ
Type NDB Name Pomigliano Frequency 351 KHZ